Location: Kapuskasing
(49.3803°N, 82.4001°W)
Time: 14:35:05
(UTC-05:00)

RS-44 - Pass Details

Date: 17 December 2025
Orbit: 1174 x 1511 km, 82.5° (Epoch: 21 January)

Event Time Altitude Azimuth Distance (km) Brightness Sun altitude
Exits shadow 04:49:11 11° 344° (NNW) 3,538 ? -33.1°
Drops below altitude 10° 04:49:32 10° 346° (NNW) 3,591 ? -33.0°
Sets 04:54:07 0° 8° (N) 4,514 ? -32.3°
